Terug naar catalogus

COSMOS 2080

GLONASS

ActiefNavigatieMEO
NORAD 20620·PAYLOAD·🇷🇺 Russia

Gelanceerd May 19, 1990 vanaf Baikonur Cosmodrome

Loading…

Volgende Passages (komende 24 uur)

TLE

VersSource: Space-Track

Epoch: Sep 14, 2026, 12:42 UTC

1 20620U 90045B   26257.52920205 -.00000044  00000-0  00000+0 0  9993
2 20620  64.6463 305.2459 0023094  26.7594 334.9612  2.13103078282511

Volg COSMOS 2080 in realtime met AllMySat

Download on the App Store